SGDC

Last updated on Thu Nov 06 2025 00:02:49 GMT+0000 (Coordinated Universal Time)

1 42692U 17023B 25309.08403839 -.00000238 00000+0 00000+0 0 9992 2 42692 0.0472 74.9844 0003633 166.4392 118.5786 1.00271016 31154
UTC large
Height (km)
Speed (km/s)
/
Latitude / Longitude
Inclination (degrees)
Orbital Period (minutes)
Azimuth
Elevation
Range (km)
Doppler Factor

Next 0 passes for location: London (51.5072 / 0.1276)

Sorry there are no passes over London.